Bookmark and Share
Track history (hours):
 

Yahata Maru

Last reported at 2014-Apr-24 21:31 UTC. Time now 2014-Apr-24 21:57 UTC.
Position N 34°41' E 135°20'.

Length 149 m; draft 4.7 m.

Type: Other ship. MMSI: 431400594.

NotesDate/timePositionNaut miles runAvg speedWind from/ knotsBaromVisibWave heightAir tempDewpointWater temp
2014-Apr-24 21:31N 34°41' E 135°20'0 0.0
2014-Apr-24 20:25N 34°41' E 135°20'0 0.1
2014-Apr-24 19:31N 34°41' E 135°20'0 0.0
2014-Apr-24 18:25N 34°41' E 135°20'0 0.1
2014-Apr-24 17:25N 34°41' E 135°20'0 0.1
2014-Apr-24 16:31N 34°41' E 135°20'0 0.1
2014-Apr-24 15:19N 34°41' E 135°20'0 0.0
2014-Apr-24 14:31N 34°41' E 135°20'0 0.0
2014-Apr-24 13:31N 34°41' E 135°20'0 0.0
2014-Apr-24 12:31N 34°41' E 135°20'0 0.0
2014-Apr-24 11:31N 34°41' E 135°20'0 0.0
2014-Apr-24 10:31N 34°41' E 135°20'0 0.0
2014-Apr-24 09:31N 34°41' E 135°20'0 0.0
2014-Apr-24 08:31N 34°41' E 135°20'0 0.0
2014-Apr-24 07:31N 34°41' E 135°20'0 0.0
2014-Apr-24 06:31N 34°41' E 135°20'1 1.3
2014-Apr-24 05:33N 34°43' E 135°21'1 0.4
2014-Apr-24 04:18N 34°43' E 135°21'0 0.0
2014-Apr-24 03:30N 34°43' E 135°21'0 0.0
2014-Apr-24 02:30N 34°43' E 135°21'0 0.0
2014-Apr-24 01:30N 34°43' E 135°21'0 0.0
2014-Apr-24 00:30N 34°43' E 135°21'0 0.0
2014-Apr-23 23:24N 34°43' E 135°21'0 0.0
2014-Apr-23 22:18N 34°43' E 135°21'0 0.0
2014-Apr-23 21:30N 34°43' E 135°21'0 0.0
2014-Apr-23 20:30N 34°43' E 135°21'0 0.0
2014-Apr-23 19:30N 34°43' E 135°21'0 0.0
2014-Apr-23 18:30N 34°43' E 135°21'0 0.0
2014-Apr-23 17:30N 34°43' E 135°21'0 0.0
2014-Apr-23 16:30N 34°43' E 135°21'0 0.0
2014-Apr-23 15:24N 34°43' E 135°21'0 0.0
2014-Apr-23 14:30N 34°43' E 135°21'0 0.0
2014-Apr-23 13:30N 34°43' E 135°21'0 0.0
2014-Apr-23 12:24N 34°43' E 135°21'0 0.0
2014-Apr-23 11:24N 34°43' E 135°21'0 0.0
2014-Apr-23 10:30N 34°43' E 135°21'0 0.0
2014-Apr-23 09:24N 34°43' E 135°21'0 0.0
2014-Apr-23 08:30N 34°43' E 135°21'0 0.0
2014-Apr-23 07:30N 34°43' E 135°21'4 3.9
2014-Apr-23 06:33N 34°40' E 135°19'4 3.7
2014-Apr-23 05:20N 34°35' E 135°18'0 0.0
2014-Apr-23 04:32N 34°35' E 135°18'0 0.0
2014-Apr-23 03:32N 34°35' E 135°18'0 0.0
2014-Apr-23 02:32N 34°36' E 135°18'0 0.0
2014-Apr-23 01:26N 34°36' E 135°18'0 0.1
2014-Apr-23 00:32N 34°36' E 135°18'0 0.0
2014-Apr-22 23:32N 34°36' E 135°18'0 0.1
2014-Apr-22 22:32N 34°35' E 135°18'6 6.1
2014-Apr-22 21:33N 34°30' E 135°14'9 9.4
2014-Apr-22 20:33N 34°23' E 135°06'9 8.9
2014-Apr-22 19:31N 34°16' E 134°59'9 9.7
2014-Apr-22 18:33N 34°07' E 135°00'10 9.7
2014-Apr-22 17:32N 33°57' E 135°01'214 4.4
2014-Apr-20 17:09N 34°53' E 139°12'910.1
2014-Apr-20 16:13N 34°57' E 139°22'710.2
2014-Apr-20 15:31N 35°01' E 139°29'9 9.8
2014-Apr-20 14:33N 35°06' E 139°39'10 9.6
2014-Apr-20 13:33N 35°13' E 139°46'10 9.7
2014-Apr-20 12:33N 35°23' E 139°42'5 5.4
2014-Apr-20 11:33N 35°28' E 139°43'0 0.0
2014-Apr-20 10:33N 35°28' E 139°43'0 0.0
2014-Apr-20 09:33N 35°28' E 139°43'0 0.0
2014-Apr-20 08:33N 35°28' E 139°43'0 0.0
2014-Apr-20 07:33N 35°28' E 139°43'0 0.0
2014-Apr-20 06:33N 35°28' E 139°43'0 0.0
2014-Apr-20 05:33N 35°28' E 139°43'0 0.1
2014-Apr-20 04:33N 35°28' E 139°43'7 6.9
2014-Apr-20 03:33N 35°29' E 139°51'10 9.8
2014-Apr-20 02:33N 35°34' E 140°02'4 4.0
2014-Apr-20 01:32N 35°33' E 140°07'0 0.0
2014-Apr-20 00:32N 35°33' E 140°07'0 0.0
2014-Apr-19 23:32N 35°33' E 140°07'0 0.0
2014-Apr-19 22:32N 35°33' E 140°07'0 0.0
2014-Apr-19 21:29N 35°33' E 140°07'0 0.0
2014-Apr-19 20:32N 35°33' E 140°07'0 0.0
2014-Apr-19 19:29N 35°33' E 140°07'0 0.0
2014-Apr-19 18:32N 35°33' E 140°07'0 0.0
2014-Apr-19 17:32N 35°33' E 140°07'0 0.0
2014-Apr-19 16:32N 35°33' E 140°07'1 1.5
2014-Apr-19 15:33N 35°33' E 140°05'9 8.8
2014-Apr-19 14:33N 35°31' E 139°55'9 8.8
2014-Apr-19 13:33N 35°27' E 139°45'2 1.9
2014-Apr-19 12:33N 35°28' E 139°43'0 0.0
2014-Apr-19 11:30N 35°28' E 139°43'0 0.0
2014-Apr-19 10:33N 35°28' E 139°43'0 0.0
2014-Apr-19 09:33N 35°28' E 139°43'0 0.2
2014-Apr-19 08:33N 35°28' E 139°43'6 5.7
2014-Apr-19 07:33N 35°23' E 139°38'0 0.0
2014-Apr-19 06:31N 35°23' E 139°38'0 0.0
2014-Apr-19 05:31N 35°23' E 139°38'1 1.1
2014-Apr-19 04:33N 35°24' E 139°40'9 9.1
2014-Apr-19 03:33N 35°16' E 139°46'8 7.8
2014-Apr-19 02:33N 35°08' E 139°46'9 9.0
2014-Apr-19 01:33N 35°02' E 139°38'9 9.0
2014-Apr-19 00:33N 34°56' E 139°30'  
2014-Apr-14 22:33N 34°36' E 134°55'1110.6
2014-Apr-14 21:34N 34°36' E 135°08'  

Dump ship's entire track history

sailing weather and tide predictions

Yahata Maru — JL6477 — position and weather